NORTHERN QUEENS  -  Heat Advisory Heat Advisory     Flash Flood Watch Flash Flood Watch     Rip Current Statement Rip Current Statement        SOUTHERN QUEENS  -  Heat Advisory Heat Advisory     Flash Flood Watch Flash Flood Watch     Rip Current Statement Rip Current Statement        NORTHERN NASSAU  -  Flash Flood Watch Flash Flood Watch     Rip Current Statement Rip Current Statement        SOUTHERN NASSAU  -  Flash Flood Watch Flash Flood Watch     Rip Current Statement Rip Current Statement        NORTHEAST SUFFOLK  -  Rip Current Statement Rip Current Statement        NORTHWEST SUFFOLK  -  Rip Current Statement Rip Current Statement        SOUTHEAST SUFFOLK  -  Rip Current Statement Rip Current Statement        SOUTHWEST SUFFOLK  -  Rip Current Statement Rip Current Statement      

Active alerts

Northern Queens
  Details for Northern Queens Heat Advisory  +2 additional alerts
Southern Queens
  Details for Southern Queens Heat Advisory  +2 additional alerts
Northern Nassau
  Details for Northern Nassau Flash Flood Watch  +1 additional alert
Southern Nassau
  Details for Southern Nassau Flash Flood Watch  +1 additional alert
Northwest Suffolk
  Details for Northwest Suffolk Rip Current Statement
Southwest Suffolk
  Details for Southwest Suffolk Rip Current Statement
Northeast Suffolk
  Details for Northeast Suffolk Rip Current Statement
Southeast Suffolk
  Details for Southeast Suffolk Rip Current Statement


WXM80 ListenWXM80 Stop

You find our weather info also at:

UK Metoffice

WeatherCloud

Weather Underground

Northeastern Weather Network

AWEKAS

Citizen Weather Observer Program (CWOP)

HAMweather, WeatherForYou, PWS Weather


Weather Underground History page Text

Daily Summary for January 9, 2016 Units:  English    Metric   Both
« Previous Day
Next Day »
Daily Weekly Monthly Yearly Custom
  High: Low: Average:
Temperature: 45.9 °F 40.9 °F 43.7 °F
Dew Point: 44.1 °F 36.7 °F 41.1 °F
Humidity: 95 % 84 % 90 %
Wind Speed: 10.7 mph 1.5 mph 6 mph
Wind Gust: 15.0 mph - -
Wind:- - ENE
Pressure: 30.21 in 30.06 in -
Precipitation: 0.00 in    
Historical Graphs
 
 
Tabular Data for January 9, 2016
Time Temperature Dew Point Pressure Wind Wind Speed Wind Gust Humidity Rainfall Rate (Hourly)
00:04 41.3 °F 36.8 °F 30.18 in East 7.3 mph 11.5 mph 84 % 0.00 in
00:09 41.3 °F 36.8 °F 30.18 in ENE 6.4 mph 8.1 mph 84 % 0.00 in
00:14 41.3 °F 36.8 °F 30.18 in ENE 7.9 mph 10.4 mph 84 % 0.00 in
00:19 41.3 °F 37.1 °F 30.18 in ENE 6.1 mph 10.0 mph 85 % 0.00 in
00:24 41.2 °F 36.7 °F 30.18 in NE 7.5 mph 14.0 mph 84 % 0.00 in
00:29 41.3 °F 36.8 °F 30.18 in ENE 7.9 mph 11.5 mph 84 % 0.00 in
00:34 41.3 °F 36.8 °F 30.17 in ENE 8.4 mph 11.5 mph 84 % 0.00 in
00:39 41.3 °F 37.1 °F 30.18 in East 7.2 mph 9.2 mph 85 % 0.00 in
00:44 41.4 °F 37.2 °F 30.17 in East 7.8 mph 11.5 mph 85 % 0.00 in
00:50 41.3 °F 36.8 °F 30.17 in ENE 7.0 mph 10.4 mph 84 % 0.00 in
00:55 41.3 °F 37.1 °F 30.17 in ENE 7.5 mph 10.4 mph 85 % 0.00 in
01:00 41.3 °F 37.1 °F 30.16 in ENE 7.8 mph 11.5 mph 85 % 0.00 in
01:05 41.3 °F 37.1 °F 30.16 in ENE 7.6 mph 9.2 mph 85 % 0.00 in
01:10 41.3 °F 37.1 °F 30.16 in ENE 6.7 mph 9.0 mph 85 % 0.00 in
01:15 41.3 °F 37.4 °F 30.16 in East 7.1 mph 9.0 mph 86 % 0.00 in
01:20 41.3 °F 37.4 °F 30.16 in NE 7.3 mph 9.2 mph 86 % 0.00 in
01:25 41.3 °F 37.4 °F 30.17 in ENE 7.0 mph 9.2 mph 86 % 0.00 in
01:30 41.3 °F 37.4 °F 30.16 in East 8.5 mph 11.5 mph 86 % 0.00 in
01:35 41.3 °F 37.4 °F 30.17 in East 6.1 mph 9.2 mph 86 % 0.00 in
01:41 41.3 °F 37.4 °F 30.17 in East 5.6 mph 8.1 mph 86 % 0.00 in
01:46 41.4 °F 37.5 °F 30.18 in East 6.8 mph 9.2 mph 86 % 0.00 in
01:51 41.4 °F 37.5 °F 30.19 in ENE 2.8 mph 4.6 mph 86 % 0.00 in
01:56 41.4 °F 37.5 °F 30.19 in East 6.0 mph 11.5 mph 86 % 0.00 in
02:01 41.5 °F 37.6 °F 30.18 in ENE 7.0 mph 9.2 mph 86 % 0.00 in
02:06 41.6 °F 37.7 °F 30.18 in ENE 6.4 mph 9.2 mph 86 % 0.00 in
02:11 41.6 °F 37.7 °F 30.18 in ENE 7.0 mph 11.5 mph 86 % 0.00 in
02:16 41.6 °F 37.7 °F 30.18 in ENE 7.4 mph 10.4 mph 86 % 0.00 in
02:21 41.7 °F 37.8 °F 30.18 in NE 6.7 mph 9.2 mph 86 % 0.00 in
02:26 41.6 °F 37.7 °F 30.18 in ENE 5.3 mph 11.5 mph 86 % 0.00 in
02:32 41.6 °F 37.7 °F 30.18 in NE 6.0 mph 11.5 mph 86 % 0.00 in
02:37 41.6 °F 37.7 °F 30.18 in ENE 7.5 mph 11.5 mph 86 % 0.00 in
02:42 41.5 °F 37.6 °F 30.18 in NNE 7.9 mph 11.5 mph 86 % 0.00 in
02:47 41.4 °F 37.5 °F 30.18 in NE 8.3 mph 11.5 mph 86 % 0.00 in
02:52 41.3 °F 37.4 °F 30.18 in East 8.6 mph 11.5 mph 86 % 0.00 in
02:57 41.3 °F 37.4 °F 30.18 in ENE 7.4 mph 11.5 mph 86 % 0.00 in
03:02 41.2 °F 37.3 °F 30.17 in East 8.1 mph 11.5 mph 86 % 0.00 in
03:07 41.2 °F 37.3 °F 30.17 in East 8.3 mph 14.0 mph 86 % 0.00 in
03:12 41.1 °F 37.2 °F 30.17 in NE 9.4 mph 13.8 mph 86 % 0.00 in
03:17 41.1 °F 37.2 °F 30.17 in ENE 8.9 mph 12.7 mph 86 % 0.00 in
03:23 41.1 °F 37.2 °F 30.17 in ENE 10.2 mph 14.0 mph 86 % 0.00 in
03:28 41.1 °F 37.2 °F 30.17 in ENE 8.7 mph 12.7 mph 86 % 0.00 in
03:33 41.1 °F 37.2 °F 30.17 in ENE 7.3 mph 10.4 mph 86 % 0.00 in
03:38 41.1 °F 37.2 °F 30.17 in ENE 10.7 mph 15.0 mph 86 % 0.00 in
03:43 41.0 °F 37.1 °F 30.17 in NE 10.0 mph 13.8 mph 86 % 0.00 in
03:48 41.1 °F 37.2 °F 30.16 in ENE 6.4 mph 10.4 mph 86 % 0.00 in
03:53 41.0 °F 37.1 °F 30.16 in NE 8.8 mph 13.0 mph 86 % 0.00 in
03:58 41.0 °F 37.4 °F 30.16 in ENE 8.0 mph 11.5 mph 87 % 0.00 in
04:03 41.1 °F 37.5 °F 30.16 in ENE 4.8 mph 9.2 mph 87 % 0.00 in
04:08 41.0 °F 37.4 °F 30.16 in ENE 7.0 mph 12.7 mph 87 % 0.00 in
04:14 41.0 °F 37.4 °F 30.16 in ENE 9.2 mph 12.0 mph 87 % 0.00 in
04:19 40.9 °F 37.3 °F 30.16 in NE 7.5 mph 10.4 mph 87 % 0.00 in
04:24 40.9 °F 37.3 °F 30.16 in East 8.5 mph 11.5 mph 87 % 0.00 in
04:29 40.9 °F 37.3 °F 30.16 in ENE 5.8 mph 8.1 mph 87 % 0.00 in
04:34 40.9 °F 37.6 °F 30.16 in ENE 6.0 mph 9.0 mph 88 % 0.00 in
04:39 40.9 °F 37.6 °F 30.15 in ENE 7.1 mph 9.2 mph 88 % 0.00 in
04:44 40.9 °F 37.6 °F 30.16 in East 6.3 mph 9.2 mph 88 % 0.00 in
04:49 40.9 °F 37.6 °F 30.16 in East 6.7 mph 9.2 mph 88 % 0.00 in
04:54 40.9 °F 37.6 °F 30.15 in ENE 5.5 mph 6.9 mph 88 % 0.00 in
04:59 41.0 °F 38.0 °F 30.15 in ENE 5.0 mph 8.1 mph 89 % 0.00 in
05:05 41.0 °F 38.0 °F 30.16 in ENE 5.8 mph 7.0 mph 89 % 0.00 in
05:10 41.1 °F 38.1 °F 30.16 in ENE 7.4 mph 9.2 mph 89 % 0.00 in
05:15 41.1 °F 38.1 °F 30.16 in East 7.9 mph 10.4 mph 89 % 0.00 in
05:20 41.1 °F 38.1 °F 30.16 in East 6.5 mph 9.2 mph 89 % 0.00 in
05:25 41.2 °F 38.2 °F 30.16 in East 6.2 mph 8.1 mph 89 % 0.00 in
05:30 41.3 °F 38.3 °F 30.16 in East 7.4 mph 9.2 mph 89 % 0.00 in
05:35 41.4 °F 38.4 °F 30.16 in East 6.9 mph 8.1 mph 89 % 0.00 in
05:40 41.4 °F 38.7 °F 30.16 in East 7.2 mph 11.5 mph 90 % 0.00 in
05:45 41.5 °F 38.8 °F 30.16 in ENE 5.6 mph 8.1 mph 90 % 0.00 in
05:51 41.6 °F 38.9 °F 30.15 in ENE 7.0 mph 9.2 mph 90 % 0.00 in
05:56 41.7 °F 39.0 °F 30.15 in East 6.9 mph 9.2 mph 90 % 0.00 in
06:01 41.7 °F 39.0 °F 30.15 in East 8.4 mph 10.4 mph 90 % 0.00 in
06:06 41.8 °F 39.1 °F 30.15 in ENE 7.4 mph 11.5 mph 90 % 0.00 in
06:11 41.8 °F 39.1 °F 30.15 in East 7.6 mph 9.2 mph 90 % 0.00 in
06:16 41.7 °F 39.0 °F 30.15 in East 7.7 mph 9.2 mph 90 % 0.00 in
06:21 41.6 °F 38.9 °F 30.15 in East 7.0 mph 9.2 mph 90 % 0.00 in
06:26 41.6 °F 38.9 °F 30.15 in NE 7.0 mph 9.2 mph 90 % 0.00 in
06:31 41.7 °F 39.3 °F 30.15 in ENE 7.5 mph 11.5 mph 91 % 0.00 in
06:36 41.7 °F 39.3 °F 30.15 in ENE 6.3 mph 7.0 mph 91 % 0.00 in
06:42 41.8 °F 39.4 °F 30.16 in ENE 6.1 mph 8.1 mph 91 % 0.00 in
06:47 41.7 °F 39.3 °F 30.16 in East 5.4 mph 8.1 mph 91 % 0.00 in
06:52 41.7 °F 39.3 °F 30.16 in East 6.3 mph 8.1 mph 91 % 0.00 in
06:57 41.6 °F 39.2 °F 30.16 in East 6.9 mph 8.1 mph 91 % 0.00 in
07:02 41.5 °F 39.1 °F 30.16 in East 5.6 mph 8.1 mph 91 % 0.00 in
07:07 41.5 °F 39.1 °F 30.16 in ENE 4.8 mph 8.1 mph 91 % 0.00 in
07:12 41.5 °F 39.1 °F 30.16 in ENE 4.8 mph 8.1 mph 91 % 0.00 in
07:17 41.5 °F 39.1 °F 30.16 in East 5.2 mph 7.0 mph 91 % 0.00 in
07:22 41.7 °F 39.3 °F 30.16 in East 6.9 mph 9.2 mph 91 % 0.00 in
07:27 41.7 °F 39.3 °F 30.16 in East 6.4 mph 8.1 mph 91 % 0.00 in
07:33 41.7 °F 39.3 °F 30.16 in East 5.0 mph 9.2 mph 91 % 0.00 in
07:38 41.8 °F 39.6 °F 30.16 in East 5.1 mph 6.9 mph 92 % 0.00 in
07:43 41.9 °F 39.7 °F 30.16 in East 5.7 mph 8.0 mph 92 % 0.00 in
07:48 42.1 °F 39.9 °F 30.16 in ENE 5.0 mph 9.0 mph 92 % 0.00 in
07:53 42.3 °F 39.9 °F 30.16 in ENE 5.5 mph 8.1 mph 91 % 0.00 in
07:58 42.4 °F 40.2 °F 30.16 in East 7.5 mph 9.2 mph 92 % 0.00 in
08:08 42.5 °F 40.1 °F 30.16 in East 8.8 mph 10.0 mph 91 % 0.00 in
08:13 42.6 °F 40.2 °F 30.16 in ENE 6.8 mph 8.1 mph 91 % 0.00 in
08:18 42.7 °F 40.3 °F 30.17 in East 6.4 mph 8.1 mph 91 % 0.00 in
08:24 42.8 °F 40.4 °F 30.18 in ENE 6.4 mph 10.4 mph 91 % 0.00 in
08:29 42.9 °F 40.5 °F 30.18 in East 5.5 mph 7.0 mph 91 % 0.00 in
08:34 42.9 °F 40.2 °F 30.18 in ENE 5.1 mph 8.0 mph 90 % 0.00 in
08:39 43.0 °F 40.3 °F 30.18 in ENE 5.7 mph 7.0 mph 90 % 0.00 in
08:44 43.0 °F 40.3 °F 30.18 in NE 6.1 mph 9.2 mph 90 % 0.00 in
08:49 43.1 °F 40.7 °F 30.18 in ENE 5.5 mph 6.0 mph 91 % 0.00 in
08:54 43.1 °F 40.7 °F 30.18 in East 7.6 mph 10.4 mph 91 % 0.00 in
08:59 43.2 °F 40.5 °F 30.18 in East 6.6 mph 10.0 mph 90 % 0.00 in
09:04 43.3 °F 40.6 °F 30.18 in East 7.5 mph 10.4 mph 90 % 0.00 in
09:09 43.3 °F 40.6 °F 30.18 in East 7.2 mph 9.2 mph 90 % 0.00 in
09:15 43.4 °F 40.7 °F 30.19 in East 6.3 mph 7.0 mph 90 % 0.00 in
09:20 43.5 °F 40.8 °F 30.19 in ENE 5.8 mph 10.4 mph 90 % 0.00 in
09:25 43.6 °F 40.9 °F 30.19 in East 6.4 mph 8.1 mph 90 % 0.00 in
09:30 43.6 °F 40.9 °F 30.19 in East 6.9 mph 9.2 mph 90 % 0.00 in
09:35 43.7 °F 41.0 °F 30.20 in East 5.2 mph 7.0 mph 90 % 0.00 in
09:40 43.8 °F 41.1 °F 30.20 in East 6.1 mph 8.1 mph 90 % 0.00 in
09:45 43.8 °F 41.1 °F 30.20 in ENE 6.9 mph 9.2 mph 90 % 0.00 in
09:50 43.8 °F 40.8 °F 30.20 in ENE 6.1 mph 8.1 mph 89 % 0.00 in
09:55 43.8 °F 40.8 °F 30.20 in East 6.3 mph 9.0 mph 89 % 0.00 in
10:00 43.9 °F 40.9 °F 30.20 in East 7.2 mph 10.0 mph 89 % 0.00 in
10:06 43.9 °F 40.9 °F 30.20 in East 6.5 mph 9.2 mph 89 % 0.00 in
10:11 44.0 °F 41.0 °F 30.21 in NE 7.3 mph 9.2 mph 89 % 0.00 in
10:16 44.0 °F 41.3 °F 30.20 in ENE 6.9 mph 10.4 mph 90 % 0.00 in
10:21 44.0 °F 41.3 °F 30.20 in ENE 7.3 mph 10.4 mph 90 % 0.00 in
10:26 44.1 °F 41.4 °F 30.20 in East 6.7 mph 9.2 mph 90 % 0.00 in
10:31 44.3 °F 41.6 °F 30.20 in ENE 7.5 mph 9.2 mph 90 % 0.00 in
10:36 44.6 °F 41.6 °F 30.20 in ENE 5.9 mph 9.2 mph 89 % 0.00 in
10:41 44.9 °F 41.9 °F 30.20 in East 7.6 mph 11.5 mph 89 % 0.00 in
10:46 45.0 °F 42.0 °F 30.19 in East 8.3 mph 10.4 mph 89 % 0.00 in
10:51 44.9 °F 41.6 °F 30.20 in East 8.4 mph 11.5 mph 88 % 0.00 in
10:57 44.8 °F 41.5 °F 30.19 in East 7.8 mph 10.4 mph 88 % 0.00 in
11:02 44.8 °F 41.5 °F 30.19 in East 7.2 mph 10.4 mph 88 % 0.00 in
11:07 45.0 °F 42.0 °F 30.18 in East 8.6 mph 12.7 mph 89 % 0.00 in
11:12 45.2 °F 42.2 °F 30.17 in ENE 6.5 mph 9.2 mph 89 % 0.00 in
11:17 45.4 °F 42.1 °F 30.17 in East 8.4 mph 10.4 mph 88 % 0.00 in
11:22 45.3 °F 42.0 °F 30.17 in ENE 7.2 mph 11.5 mph 88 % 0.00 in
11:27 45.3 °F 42.0 °F 30.17 in ENE 6.1 mph 10.4 mph 88 % 0.00 in
11:32 45.3 °F 42.0 °F 30.17 in ENE 7.2 mph 9.0 mph 88 % 0.00 in
11:37 45.3 °F 42.0 °F 30.17 in East 7.0 mph 9.2 mph 88 % 0.00 in
11:42 45.2 °F 41.9 °F 30.17 in East 6.5 mph 8.1 mph 88 % 0.00 in
11:48 45.2 °F 41.9 °F 30.17 in East 5.8 mph 8.0 mph 88 % 0.00 in
11:53 45.2 °F 41.9 °F 30.16 in East 6.0 mph 8.1 mph 88 % 0.00 in
11:58 45.2 °F 42.2 °F 30.16 in ENE 6.5 mph 9.2 mph 89 % 0.00 in
12:03 45.2 °F 42.2 °F 30.16 in ENE 5.4 mph 8.1 mph 89 % 0.00 in
12:08 45.3 °F 42.2 °F 30.16 in NE 7.3 mph 9.2 mph 89 % 0.00 in
12:13 45.2 °F 42.2 °F 30.16 in ENE 6.1 mph 9.2 mph 89 % 0.00 in
12:18 45.1 °F 42.1 °F 30.16 in ENE 5.3 mph 7.0 mph 89 % 0.00 in
12:23 45.2 °F 42.2 °F 30.16 in ENE 5.8 mph 8.1 mph 89 % 0.00 in
12:28 45.3 °F 42.2 °F 30.16 in East 5.7 mph 9.2 mph 89 % 0.00 in
12:33 45.3 °F 42.2 °F 30.16 in ENE 7.1 mph 8.1 mph 89 % 0.00 in
12:39 45.3 °F 42.2 °F 30.16 in ENE 5.8 mph 6.9 mph 89 % 0.00 in
12:44 45.2 °F 42.2 °F 30.16 in ENE 4.7 mph 8.1 mph 89 % 0.00 in
12:49 45.2 °F 42.4 °F 30.16 in ENE 8.1 mph 11.5 mph 90 % 0.00 in
12:54 45.1 °F 42.3 °F 30.16 in ENE 6.1 mph 9.0 mph 90 % 0.00 in
12:59 45.1 °F 42.3 °F 30.16 in ENE 5.9 mph 9.2 mph 90 % 0.00 in
13:04 45.0 °F 42.2 °F 30.15 in ENE 6.3 mph 10.4 mph 90 % 0.00 in
13:09 45.0 °F 42.2 °F 30.15 in ENE 7.7 mph 10.4 mph 90 % 0.00 in
13:14 45.1 °F 42.3 °F 30.14 in ENE 7.7 mph 11.5 mph 90 % 0.00 in
13:19 45.1 °F 42.6 °F 30.14 in ENE 5.9 mph 8.1 mph 91 % 0.00 in
13:24 45.1 °F 42.6 °F 30.14 in ENE 7.0 mph 13.0 mph 91 % 0.00 in
13:30 45.1 °F 42.6 °F 30.13 in ENE 6.3 mph 9.2 mph 91 % 0.00 in
13:35 45.1 °F 42.6 °F 30.13 in ENE 6.0 mph 10.4 mph 91 % 0.00 in
13:40 45.1 °F 42.6 °F 30.12 in East 5.9 mph 9.2 mph 91 % 0.00 in
13:45 45.3 °F 42.8 °F 30.12 in East 7.6 mph 11.5 mph 91 % 0.00 in
13:50 45.4 °F 42.9 °F 30.11 in ENE 6.3 mph 8.1 mph 91 % 0.00 in
13:55 45.6 °F 43.1 °F 30.11 in ENE 6.2 mph 8.1 mph 91 % 0.00 in
14:00 45.8 °F 43.3 °F 30.11 in East 7.8 mph 9.2 mph 91 % 0.00 in
14:05 45.8 °F 43.0 °F 30.11 in East 6.2 mph 9.2 mph 90 % 0.00 in
14:10 45.9 °F 43.1 °F 30.11 in ENE 8.0 mph 11.5 mph 90 % 0.00 in
14:15 45.9 °F 43.1 °F 30.11 in ENE 4.8 mph 8.1 mph 90 % 0.00 in
14:21 45.9 °F 43.1 °F 30.11 in ENE 4.5 mph 11.5 mph 90 % 0.00 in
14:26 45.9 °F 43.1 °F 30.12 in ENE 5.2 mph 8.1 mph 90 % 0.00 in
14:31 45.9 °F 43.1 °F 30.12 in ENE 6.0 mph 10.4 mph 90 % 0.00 in
14:36 45.9 °F 43.1 °F 30.12 in East 5.2 mph 8.1 mph 90 % 0.00 in
14:41 45.9 °F 43.1 °F 30.11 in ENE 5.8 mph 8.1 mph 90 % 0.00 in
14:46 45.8 °F 43.0 °F 30.11 in ENE 6.0 mph 9.0 mph 90 % 0.00 in
14:51 45.7 °F 43.2 °F 30.11 in ENE 6.1 mph 8.1 mph 91 % 0.00 in
14:56 45.6 °F 42.8 °F 30.11 in East 6.4 mph 9.2 mph 90 % 0.00 in
15:01 45.7 °F 43.2 °F 30.11 in East 7.5 mph 11.5 mph 91 % 0.00 in
15:06 45.7 °F 43.2 °F 30.11 in East 6.6 mph 9.0 mph 91 % 0.00 in
15:12 45.6 °F 43.1 °F 30.11 in East 6.6 mph 8.1 mph 91 % 0.00 in
15:17 45.6 °F 43.1 °F 30.12 in East 7.2 mph 9.2 mph 91 % 0.00 in
15:22 45.6 °F 43.1 °F 30.12 in East 6.1 mph 7.0 mph 91 % 0.00 in
15:27 45.6 °F 43.1 °F 30.12 in East 4.7 mph 6.9 mph 91 % 0.00 in
15:32 45.5 °F 43.0 °F 30.12 in East 6.0 mph 9.2 mph 91 % 0.00 in
15:37 45.5 °F 43.0 °F 30.12 in East 6.3 mph 10.0 mph 91 % 0.00 in
15:47 45.2 °F 42.7 °F 30.12 in ENE 6.2 mph 8.1 mph 91 % 0.00 in
15:52 45.2 °F 43.0 °F 30.12 in ENE 5.0 mph 9.2 mph 92 % 0.00 in
15:57 45.2 °F 43.0 °F 30.12 in East 5.1 mph 9.2 mph 92 % 0.00 in
16:03 45.1 °F 42.9 °F 30.12 in East 5.8 mph 7.0 mph 92 % 0.00 in
16:08 45.1 °F 42.9 °F 30.11 in ENE 5.9 mph 9.2 mph 92 % 0.00 in
16:13 45.1 °F 42.9 °F 30.12 in ENE 7.3 mph 13.8 mph 92 % 0.00 in
16:18 45.0 °F 42.8 °F 30.12 in East 6.0 mph 10.4 mph 92 % 0.00 in
16:23 45.0 °F 42.8 °F 30.11 in ENE 4.7 mph 6.9 mph 92 % 0.00 in
16:28 45.0 °F 43.1 °F 30.11 in ESE 8.5 mph 10.4 mph 93 % 0.00 in
16:38 45.0 °F 43.1 °F 30.11 in East 7.9 mph 10.4 mph 93 % 0.00 in
16:43 45.0 °F 43.1 °F 30.12 in East 7.0 mph 9.2 mph 93 % 0.00 in
16:48 44.9 °F 43.0 °F 30.13 in East 3.8 mph 5.8 mph 93 % 0.00 in
16:54 44.9 °F 43.0 °F 30.14 in East 5.6 mph 6.0 mph 93 % 0.00 in
16:59 45.0 °F 43.1 °F 30.13 in East 4.8 mph 8.1 mph 93 % 0.00 in
17:04 44.9 °F 43.0 °F 30.14 in East 4.6 mph 5.8 mph 93 % 0.00 in
17:09 44.9 °F 43.0 °F 30.14 in East 5.1 mph 6.9 mph 93 % 0.00 in
17:14 44.9 °F 43.0 °F 30.14 in East 3.1 mph 6.9 mph 93 % 0.00 in
17:19 44.9 °F 43.0 °F 30.15 in East 5.5 mph 6.9 mph 93 % 0.00 in
17:24 44.9 °F 43.0 °F 30.15 in East 2.4 mph 3.5 mph 93 % 0.00 in
17:29 44.9 °F 43.0 °F 30.15 in East 4.2 mph 6.9 mph 93 % 0.00 in
17:34 44.9 °F 43.0 °F 30.15 in ENE 2.3 mph 4.6 mph 93 % 0.00 in
17:39 44.9 °F 43.0 °F 30.15 in East 3.2 mph 5.0 mph 93 % 0.00 in
17:45 44.9 °F 43.0 °F 30.15 in ENE 2.4 mph 3.5 mph 93 % 0.00 in
17:50 44.9 °F 43.0 °F 30.15 in East 3.1 mph 5.0 mph 93 % 0.00 in
17:55 44.8 °F 42.9 °F 30.15 in ENE 2.9 mph 5.8 mph 93 % 0.00 in
18:00 44.9 °F 43.0 °F 30.15 in East 4.2 mph 6.9 mph 93 % 0.00 in
18:05 44.8 °F 42.9 °F 30.14 in ENE 5.0 mph 5.8 mph 93 % 0.00 in
18:10 44.8 °F 42.9 °F 30.14 in East 5.3 mph 7.0 mph 93 % 0.00 in
18:15 44.8 °F 42.9 °F 30.13 in East 5.4 mph 5.8 mph 93 % 0.00 in
18:20 44.8 °F 42.9 °F 30.14 in East 4.6 mph 6.9 mph 93 % 0.00 in
18:25 44.8 °F 42.6 °F 30.14 in East 4.4 mph 5.8 mph 92 % 0.00 in
18:30 44.8 °F 42.9 °F 30.14 in East 3.6 mph 5.8 mph 93 % 0.00 in
18:36 44.8 °F 42.9 °F 30.13 in ENE 4.1 mph 6.9 mph 93 % 0.00 in
18:41 44.8 °F 42.9 °F 30.14 in East 3.4 mph 6.0 mph 93 % 0.00 in
18:46 44.8 °F 42.9 °F 30.14 in East 5.8 mph 6.9 mph 93 % 0.00 in
18:51 44.8 °F 42.9 °F 30.14 in East 5.6 mph 6.9 mph 93 % 0.00 in
18:56 44.8 °F 42.9 °F 30.14 in East 4.4 mph 7.0 mph 93 % 0.00 in
19:01 44.7 °F 42.8 °F 30.14 in ENE 5.6 mph 6.9 mph 93 % 0.00 in
19:06 44.7 °F 42.8 °F 30.14 in ENE 4.6 mph 5.8 mph 93 % 0.00 in
19:11 44.7 °F 42.8 °F 30.14 in ENE 5.4 mph 9.0 mph 93 % 0.00 in
19:16 44.8 °F 42.9 °F 30.13 in East 4.9 mph 6.9 mph 93 % 0.00 in
19:22 44.8 °F 42.9 °F 30.13 in East 4.7 mph 8.1 mph 93 % 0.00 in
19:27 44.8 °F 42.9 °F 30.14 in ENE 3.7 mph 6.9 mph 93 % 0.00 in
19:32 44.8 °F 42.9 °F 30.14 in ENE 5.4 mph 6.9 mph 93 % 0.00 in
19:37 44.8 °F 42.9 °F 30.13 in ENE 4.7 mph 6.9 mph 93 % 0.00 in
19:42 44.8 °F 42.9 °F 30.13 in ENE 5.1 mph 6.9 mph 93 % 0.00 in
19:47 44.8 °F 42.9 °F 30.13 in East 3.9 mph 6.9 mph 93 % 0.00 in
19:52 44.9 °F 43.0 °F 30.13 in East 6.4 mph 8.1 mph 93 % 0.00 in
19:57 44.9 °F 43.0 °F 30.13 in ENE 5.3 mph 6.9 mph 93 % 0.00 in
20:02 44.9 °F 43.0 °F 30.13 in East 7.1 mph 9.2 mph 93 % 0.00 in
20:07 44.9 °F 43.0 °F 30.13 in East 4.9 mph 5.8 mph 93 % 0.00 in
20:13 44.9 °F 43.0 °F 30.13 in East 5.4 mph 7.0 mph 93 % 0.00 in
20:18 44.9 °F 43.0 °F 30.14 in East 5.1 mph 5.8 mph 93 % 0.00 in
20:23 44.9 °F 43.0 °F 30.13 in East 2.8 mph 4.6 mph 93 % 0.00 in
20:28 45.0 °F 43.1 °F 30.13 in ENE 2.8 mph 4.6 mph 93 % 0.00 in
20:33 44.9 °F 43.0 °F 30.13 in East 2.3 mph 3.5 mph 93 % 0.00 in
20:38 44.9 °F 43.0 °F 30.13 in East 2.6 mph 3.5 mph 93 % 0.00 in
20:43 45.0 °F 43.1 °F 30.13 in East 2.5 mph 5.0 mph 93 % 0.00 in
20:48 45.0 °F 43.1 °F 30.12 in ENE 2.3 mph 3.5 mph 93 % 0.00 in
20:53 45.0 °F 43.1 °F 30.13 in ENE 1.5 mph 3.0 mph 93 % 0.00 in
20:58 45.0 °F 43.1 °F 30.13 in East 2.6 mph 4.0 mph 93 % 0.00 in
21:04 45.0 °F 43.1 °F 30.12 in East 2.5 mph 4.6 mph 93 % 0.00 in
21:09 45.1 °F 43.5 °F 30.12 in ENE 2.5 mph 5.8 mph 94 % 0.00 in
21:14 45.2 °F 43.6 °F 30.12 in East 4.6 mph 7.0 mph 94 % 0.00 in
21:19 45.3 °F 43.7 °F 30.12 in ENE 4.8 mph 6.0 mph 94 % 0.00 in
21:24 45.4 °F 43.8 °F 30.12 in East 5.4 mph 6.9 mph 94 % 0.00 in
21:29 45.4 °F 43.8 °F 30.12 in East 3.5 mph 4.6 mph 94 % 0.00 in
21:34 45.4 °F 43.8 °F 30.12 in East 2.7 mph 4.6 mph 94 % 0.00 in
21:39 45.5 °F 43.9 °F 30.11 in ENE 2.8 mph 6.9 mph 94 % 0.00 in
21:44 45.5 °F 43.9 °F 30.10 in ENE 3.0 mph 4.6 mph 94 % 0.00 in
21:50 45.5 °F 43.9 °F 30.10 in East 3.7 mph 4.6 mph 94 % 0.00 in
21:55 45.5 °F 43.9 °F 30.10 in East 3.1 mph 4.6 mph 94 % 0.00 in
22:00 45.4 °F 43.8 °F 30.10 in East 3.5 mph 6.0 mph 94 % 0.00 in
22:05 45.4 °F 43.8 °F 30.10 in ENE 3.0 mph 3.5 mph 94 % 0.00 in
22:10 45.4 °F 43.8 °F 30.09 in ENE 3.7 mph 4.6 mph 94 % 0.00 in
22:15 45.4 °F 43.8 °F 30.09 in East 3.5 mph 5.0 mph 94 % 0.00 in
22:20 45.4 °F 43.8 °F 30.08 in ENE 3.8 mph 4.6 mph 94 % 0.00 in
22:25 45.4 °F 43.8 °F 30.08 in East 5.0 mph 6.9 mph 94 % 0.00 in
22:30 45.3 °F 44.0 °F 30.09 in East 4.7 mph 5.8 mph 95 % 0.00 in
22:41 45.3 °F 44.0 °F 30.08 in ENE 4.9 mph 8.0 mph 95 % 0.00 in
22:46 45.4 °F 44.1 °F 30.08 in ENE 4.5 mph 10.4 mph 95 % 0.00 in
22:51 45.4 °F 44.1 °F 30.08 in ENE 5.1 mph 6.9 mph 95 % 0.00 in
22:56 45.4 °F 44.1 °F 30.07 in ENE 4.1 mph 5.8 mph 95 % 0.00 in
23:01 45.4 °F 44.1 °F 30.07 in NE 4.9 mph 6.9 mph 95 % 0.00 in
23:06 45.4 °F 44.1 °F 30.07 in ENE 5.9 mph 10.4 mph 95 % 0.00 in
23:11 45.4 °F 44.1 °F 30.06 in NE 4.5 mph 6.9 mph 95 % 0.00 in
23:16 45.4 °F 44.1 °F 30.06 in ENE 4.5 mph 4.6 mph 95 % 0.00 in
23:21 45.4 °F 44.1 °F 30.06 in ENE 4.1 mph 9.2 mph 95 % 0.00 in
23:26 45.4 °F 44.1 °F 30.06 in ENE 3.6 mph 6.9 mph 95 % 0.00 in
23:32 45.4 °F 44.1 °F 30.07 in East 4.3 mph 5.0 mph 95 % 0.00 in
23:37 45.4 °F 44.1 °F 30.06 in East 4.4 mph 7.0 mph 95 % 0.00 in
23:42 45.4 °F 44.1 °F 30.06 in East 4.5 mph 6.9 mph 95 % 0.00 in
23:47 45.4 °F 44.1 °F 30.06 in East 4.6 mph 6.9 mph 95 % 0.00 in
23:52 45.4 °F 44.1 °F 30.06 in East 4.9 mph 7.0 mph 95 % 0.00 in
23:57 45.4 °F 44.1 °F 30.06 in East 4.4 mph 6.0 mph 95 % 0.00 in
Crab Meadow Weather
Compliments of Weather Underground - 3 mb

Script developed by  Jim McMurry - jmcmurry@mwt.net Adapted for the template by  Wim van der Kuil - Leuven-Template.eu

Lightning: Lightning's return stroke is hotter than the surface of the sun. Lightning is 50,000 degrees F. The sun is about 11,000 degrees F.